Weather History for Willimantic, CT

Change the Weather History Date:

Tuesday, February 19, 2013

  Actual Average Record
Temperature  
Mean Temperature 30 °F -  
Max Temperature 46 °F 37 °F 67 °F (1981)
Min Temperature 14 °F 18 °F -3 °F (1958)
Degree Days  
Heating Degree Days 35    
Moisture  
Dew Point 26 °F    
Average Humidity 74    
Maximum Humidity 90    
Minimum Humidity 49    
Precipitation  
Precipitation 0.14 in - - ()
Sea Level Pressure  
Sea Level Pressure 29.91 in    
Wind  
Wind Speed 3 mph (SSW)    
Max Wind Speed 13 mph    
Max Gust Speed 21 mph    
Visibility 9 miles    
Events Rain    
Averages and records for this station are not official NWS values.
T = Trace of Precipitation, MM = Missing Value Source: NWS Daily Summary

Daily Weather History Graph

Daily Weather History Graph

Search for Another Location

Airport:

Trip Planner

Search our weather history database for the weather conditions in past years. The results will help you decide how hot, cold, wet, or windy it might be!

Date:

Astronomy

Feb. 19, 2013 Rise Set
Actual Time 6:38 AM EST 5:27 PM EST
Civil Twilight 6:10 AM EST 5:55 PM EST
Nautical Twilight 5:37 AM EST 6:28 PM EST
Astronomical Twilight 5:05 AM EST 7:00 PM EST
Moon 11:53 AM EST (2/19) 2:10 AM EST (2/19)
Length of Visible Light 11h 45m
Length of Day
10h 48m
Waxing Gibbous, 67% of the Moon is Illuminated
Feb 19
Waxing Gibbous
Feb 25
Full
Mar 4
Last Quarter
Mar 11
New
Mar 19
First Quarter

Hourly Weather History & Observations

Time (EST) Temp. Windchill Dew Point Humidity Pressure Visibility Wind Dir Wind Speed Gust Speed Precip Events Conditions
12:52 AM 17.1 °F 11.7 °F 7.0 °F 65% 30.21 in 10.0 mi NE 3.5 mph - N/A   Clear
1:52 AM 17.1 °F - 8.1 °F 68% 30.20 in 10.0 mi Calm Calm - N/A   Clear
2:52 AM 16.0 °F - 8.1 °F 71% 30.17 in 10.0 mi Calm Calm - N/A   Mostly Cloudy
3:52 AM 16.0 °F - 8.1 °F 71% 30.17 in 10.0 mi Calm Calm - N/A   Partly Cloudy
4:52 AM 14.0 °F - 7.0 °F 74% 30.16 in 9.0 mi Calm Calm - N/A   Scattered Clouds
5:52 AM 17.1 °F - 8.1 °F 68% 30.15 in 10.0 mi Calm Calm - N/A   Scattered Clouds
6:52 AM 15.1 °F - 9.0 °F 77% 30.12 in 8.0 mi Calm Calm - N/A   Clear
7:52 AM 18.0 °F - 9.0 °F 68% 30.12 in 9.0 mi Calm Calm - N/A   Clear
8:52 AM 23.0 °F - 10.0 °F 58% 30.11 in 10.0 mi Calm Calm - N/A   Clear
9:52 AM 30.9 °F - 14.0 °F 50% 30.07 in 10.0 mi Calm Calm - N/A   Clear
10:52 AM 39.9 °F 37.8 °F 24.1 °F 53% 30.06 in 10.0 mi Variable 3.5 mph - N/A   Clear
11:52 AM 45.0 °F 38.9 °F 27.0 °F 49% 30.00 in 10.0 mi South 12.7 mph 20.7 mph N/A   Clear
1:52 PM 46.0 °F 41.0 °F 30.0 °F 54% 29.92 in 10.0 mi South 10.4 mph 18.4 mph N/A   Clear
2:52 PM 46.0 °F 41.4 °F 32.0 °F 58% 29.89 in 10.0 mi South 9.2 mph - N/A   Overcast
3:52 PM 42.1 °F 37.7 °F 37.0 °F 82% 29.86 in 9.0 mi South 6.9 mph - 0.02 in Rain Light Rain
4:24 PM 42.8 °F 39.3 °F 37.4 °F 81% 29.82 in 7.0 mi South 5.8 mph - 0.01 in Rain Light Rain
4:45 PM 42.8 °F 40.1 °F 37.4 °F 81% 29.80 in 4.0 mi SSE 4.6 mph - 0.02 in Rain Light Rain
4:52 PM 42.1 °F 39.2 °F 39.0 °F 89% 29.81 in 3.0 mi SSE 4.6 mph - 0.03 in Rain Light Rain
5:52 PM 42.1 °F 37.1 °F 39.0 °F 89% 29.76 in 6.0 mi South 8.1 mph - 0.03 in Rain Light Rain
5:59 PM 42.8 °F 38.0 °F 39.2 °F 87% 29.74 in 5.0 mi SSE 8.1 mph - 0.00 in Rain Light Rain
7:52 PM 45.0 °F 39.7 °F 42.1 °F 90% 29.67 in 10.0 mi SW 10.4 mph 16.1 mph 0.01 in Rain Light Rain
8:17 PM 44.6 °F 40.7 °F 41.0 °F 87% 29.65 in 5.0 mi SW 6.9 mph - 0.04 in Rain Light Rain
8:45 PM 42.8 °F 39.3 °F 39.2 °F 87% 29.64 in 10.0 mi SW 5.8 mph - 0.05 in Rain Light Rain
8:52 PM 43.0 °F 40.3 °F 39.9 °F 89% 29.65 in 10.0 mi SW 4.6 mph - 0.05 in Rain Light Rain
10:52 PM 42.1 °F 39.2 °F 37.0 °F 82% 29.63 in 10.0 mi WSW 4.6 mph - 0.00 in   Overcast
10:59 PM 42.8 °F 41.1 °F 37.4 °F 81% 29.62 in 10.0 mi West 3.5 mph - N/A   Overcast
11:52 PM 39.0 °F 36.8 °F 36.0 °F 89% 29.60 in 9.0 mi WSW 3.5 mph - N/A   Overcast